Regional Weather Roundup
Issued by NWS

Home | Current Version | Previous Version | Graphics & Text | Print | Product List | Glossary On
Versions: 1 2 3 4 5 6 7 8 9 10 11 12 13 14 15 16 17 18 19 20 21 22 23 24 25 26 27 28 29 30 31 32 33 34 35 36 37 38 39 40 41 42 43 44 45 46 47 48 49 50
000
ASUS43 KDTX 281910
RWRMI
MICHIGAN HOURLY REGIONAL WEATHER ROUNDUP
NATIONAL WEATHER SERVICE DETROIT/PONTIAC MI
200 PM EST WED JAN 28 2015

NOTE: "FAIR" INDICATES FEW OR NO CLOUDS BELOW 12,000 FEET WITH NO
SIGNIFICANT WEATHER AND/OR OBSTRUCTION TO VISIBILITY.

MIZ047>049-052>055-059>063-066>070-074>076-081>083-282000-
SOUTHEAST LOWER MICHIGAN

CITY           SKY/WX    TMP DP  RH WIND       PRES   REMARKS
ADRIAN         SUNNY     25  10  53 S9        30.30F WCI  15
ALMA           SUNNY     30  14  51 S8        30.25F WCI  22
ANN ARBOR      SUNNY     28   9  44 S9        30.28F WCI  19
BAD AXE        SUNNY     27  10  50 S3        30.27F
CARO           SUNNY     30   6  37 S5        30.26F WCI  25
DETROIT CITY   SUNNY     29  11  47 SW9       30.31F WCI  20
DETROIT        PTSUNNY   28  11  48 SE8       30.31F WCI  20
FLINT          SUNNY     31   9  39 S10       30.26F WCI  22
GROSSE ILE     SUNNY     25  16  68 S9        30.31F WCI  15
HILLSDALE      SUNNY     25   7  46 S6        30.25F WCI  18
HOWELL         SUNNY     30   7  37 S8        30.24F WCI  22

CITY           SKY/WX    TMP DP  RH WIND       PRES   REMARKS
JACKSON        SUNNY     29   8  41 SE9       30.24F WCI  20
LAMBERTVILLE   SUNNY     30  12  47 S5        30.31F WCI  25
LANSING        SUNNY     30  10  43 S10       30.25F WCI  21
LAPEER         FAIR      29   4  34 CALM      30.26F
MASON          SUNNY     28   9  43 S6        30.25F WCI  22
MONROE         SUNNY     27  18  69 S7        30.30F WCI  19
MT. CLEMENS    PTSUNNY   26  11  53 S10       30.29F VSB 1   WCI  16
PONTIAC        MOSUNNY   29   4  34 VRB7      30.25F WCI  22
PORT HOPE        N/A     26   7  44 VRB5      30.26F WCI  20
PORT HURON     SUNNY     28  12  50 SW6       30.30F WCI  22
TRI CITIES     SUNNY     30  11  45 S8        30.26F WCI  22
TROY           SUNNY     32  -2  23 S6        30.30F WCI  26
SAGINAW HB     SUNNY     32  10  40 S7        30.26F WCI  26
$$
MIZ043>046-050>051-056>058-064>065-071>073-077>080-282000-
SOUTHWEST LOWER MICHIGAN

CITY           SKY/WX    TMP DP  RH WIND       PRES   REMARKS
BATTLE CREEK   PTSUNNY   30  11  45 S8        30.24F WCI  22
BENTON HARBOR  MOSUNNY   31  11  43 SE13G20   30.20F WCI  21
BIG RAPIDS     PTSUNNY   30  14  52 S7        30.19F WCI  23
COLDWATER      PTSUNNY   27   8  43 SE10      30.25F WCI  18
FREMONT        MOCLDY    29   5  36 S7        30.20F WCI  22
HOLLAND        PTSUNNY   32   9  38 SE9       30.22F WCI  24
GRAND RAPIDS   CLOUDY    29  11  47 S8        30.23F WCI  21
IONIA          FAIR      30  12  46 S9        30.24F WCI  22
KALAMAZOO      PTSUNNY   29  10  45 SE10      30.24F WCI  20
LUDINGTON      CLOUDY    32  22  66 S13       30.18F WCI  22
MARSHALL       PTSUNNY   28   8  43 S9        30.25F WCI  19
MOUNT PLEASANT SUNNY     29  13  51 SE7       30.23F WCI  22
MUSKEGON       PTSUNNY   31  11  43 SE7       30.21F WCI  24
SOUTH HAVEN    PTSUNNY   32   7  35 S10       30.21F WCI  24
$$
MIZ016>042-282000-
NORTHERN LOWER MICHIGAN

CITY           SKY/WX    TMP DP  RH WIND       PRES   REMARKS
ALPENA         SUNNY     26   5  40 S5        30.23F WCI  20
BEAVER ISLAND  PTSUNNY   27  19  72 CALM      30.17F
BELLAIRE       PTSUNNY   29   4  34 CALM      30.20F
CADILLAC       MOSUNNY   28  14  57 S7        30.15F WCI  20
CHARLEVOIX     PTSUNNY   27   6  40 S7        30.21F WCI  20
FRANKFORT      CLOUDY    29  20  68 S9        30.17F WCI  20
GAYLORD        MOSUNNY   25   3  38 S9        30.15F WCI  15
GRAYLING       MOSUNNY   28   5  37 S7        30.18F WCI  21
HARBOR SPRINGS PTSUNNY   27   6  40 CALM      30.19F
HOUGHTON LAKE  MOSUNNY   28   6  39 SW6       30.19F WCI  22
MANISTEE       CLOUDY    28  18  64 SE8       30.18F WCI  20
OSCODA         SUNNY     28  11  49 SW9       30.24F WCI  19
PELLSTON       MOSUNNY   26   9  48 SE7       30.20F WCI  18
ROGERS CITY    SUNNY     26   9  49 E5        30.22F WCI  20
TRAVERSE CITY  CLOUDY    31  16  54 S9        30.17F WCI  23
$$
MIZ007>008-015-282000-
EASTERN UPPER MICHIGAN

CITY           SKY/WX    TMP DP  RH WIND       PRES   REMARKS
KINROSS        MOSUNNY   27  16  63 S8        30.18F WCI  18
MACKINAC ISLAN MOSUNNY   26   9  50 SE5       30.19F WCI  20
NEWBERRY       CLOUDY    23  17  80 SE10      30.13F WCI  12
S. S. MARIE    PTSUNNY   23   7  50 E8        30.19F WCI  14
MUNISING         N/A     31  20  63 S16G29    30.08F WCI  20
$$
MIZ004>006-011>014-085-282000-
CENTRAL UPPER MICHIGAN

CITY           SKY/WX    TMP DP  RH WIND       PRES   REMARKS
MANISTIQUE     CLOUDY    28  24  85 S13G18    30.12F WCI  18
ESCANABA       CLOUDY    28  19  69 S7        30.12F WCI  21
MENOMINEE      PTSUNNY   30  21  69 SW12      30.11F WCI  21
SAWYER-GWINN   CLOUDY    27  19  74 S20G25    30.05F WCI  13
$$
MIZ001>003-009>011-084-282000-
WESTERN UPPER MICHIGAN

CITY           SKY/WX    TMP DP  RH WIND       PRES   REMARKS
IRON MOUNTAIN  CLOUDY    28  19  69 S13       30.03F WCI  17
HOUGHTON       CLOUDY    28  21  75 SE10      29.96F WCI  19
COPPER HARBOR    N/A     29  22  75 SW6       29.99F WCI  23
IRONWOOD       CLOUDY    28  23  80 S7        29.90F WCI  21
$$

ABBREVIATIONS USED IN REMARKS
   TC - TEMPERATURE IN CELSIUS
  WCI - WIND CHILL INDEX
   HX - HEAT INDEX
  VSB - VISIBILITY



USA.gov is the U.S. government's official web portal to all federal, state and local government web resources and services.